Weather History for Perth, WE

Change the Weather History Date:

Wednesday, November 13, 2013

  Actual Average Record
Temperature  
Mean Temperature 72 °F -  
Max Temperature 87 °F 81 °F 96 °F (2001)
Min Temperature 57 °F 57 °F 45 °F (2012)
Cooling Degree Days 7    
Growing Degree Days 22 (Base 50)    
Moisture  
Dew Point 52 °F    
Average Humidity 50    
Maximum Humidity 77    
Minimum Humidity 16    
Precipitation  
Precipitation 0.00 in 0.02 in - ()
Sea Level Pressure  
Sea Level Pressure 29.90 in    
Wind  
Wind Speed 12 mph ()    
Max Wind Speed 18 mph    
Max Gust Speed -    
Visibility 11.5 miles    
Events      
Averages and records for this station are not official NWS values.
T = Trace of Precipitation, MM = Missing Value Source: Averaged Metar Reports

Daily Weather History Graph

Daily Weather History Graph

Search for Another Location

Airport:

Trip Planner

Search our weather history database for the weather conditions in past years. The results will help you decide how hot, cold, wet, or windy it might be!

Date:

Astronomy

Nov. 13, 2013 Rise Set
Actual Time 5:09 AM AWST 6:51 PM AWST
Civil Twilight 4:43 AM AWST 7:18 PM AWST
Nautical Twilight 4:11 AM AWST 7:50 PM AWST
Astronomical Twilight 3:37 AM AWST 8:23 PM AWST
Moon 2:46 PM AWST (11/13) 2:13 AM AWST (11/13)
Length of Visible Light 14h 35m
Length of Day
13h 41m
Waxing Gibbous, 80% of the Moon is Illuminated
Nov 13
Waxing Gibbous
Nov 17
Full
Nov 26
Last Quarter
Dec 3
New
Dec 9
First Quarter

Hourly Weather History & Observations

Time (AWST) Temp. Heat Index Dew Point Humidity Pressure Visibility Wind Dir Wind Speed Gust Speed Precip Events Conditions
12:00 AM 65 °F - 51 °F 50% 29.91 in 16 mi SSE 13.8 mph - -   Partly Cloudy
12:00 AM 64.4 °F - 50.0 °F 59% 29.89 in - SSE 13.8 mph - N/A   Clear
12:30 AM 64.4 °F - 51.8 °F 64% 29.89 in - SSE 16.1 mph - N/A   Clear
1:00 AM 62.6 °F - 51.8 °F 68% 29.89 in - SSE 13.8 mph - N/A   Clear
1:30 AM 62.6 °F - 51.8 °F 68% 29.89 in - South 11.5 mph - N/A   Clear
2:00 AM 61 °F - 51 °F 61% 29.91 in - South 11.5 mph - -  
2:00 AM 60.8 °F - 51.8 °F 72% 29.89 in - South 11.5 mph - N/A   Unknown
2:30 AM 60.8 °F - 50.0 °F 68% 29.89 in - South 10.4 mph - N/A   Clear
3:00 AM 60 °F - 51 °F 65% 29.92 in 16 mi South 10.4 mph - -   Partly Cloudy
3:00 AM 59.0 °F - 51.8 °F 77% 29.92 in - South 10.4 mph - N/A   Clear
3:30 AM 59.0 °F - 51.8 °F 77% 29.92 in - South 10.4 mph - N/A   Clear
4:00 AM 59.0 °F - 50.0 °F 72% 29.92 in - South 12.7 mph - N/A   Clear
4:30 AM 57.2 °F - 50.0 °F 77% 29.92 in - SSW 10.4 mph - N/A   Clear
5:00 AM 57 °F - 51 °F 73% 29.94 in - SSW 9.2 mph - -  
5:00 AM 57.2 °F - 50.0 °F 77% 29.92 in - SSW 9.2 mph - N/A   Clear
5:30 AM 57.2 °F - 50.0 °F 77% 29.95 in - SSW 9.2 mph - N/A   Clear
6:00 AM 58 °F - 50 °F 67% 29.96 in 19 mi SSW 10.4 mph - -   Partly Cloudy
6:00 AM 59.0 °F - 50.0 °F 72% 29.95 in - SSW 10.4 mph - N/A   Clear
6:30 AM 59.0 °F - 50.0 °F 72% 29.95 in 6.2 mi South 11.5 mph - N/A   Partly Cloudy
7:00 AM 62.6 °F - 50.0 °F 63% 29.95 in 6.2 mi South 11.5 mph - N/A   Partly Cloudy
7:30 AM 64.4 °F - 50.0 °F 59% 29.95 in 6.2 mi South 11.5 mph - N/A   Partly Cloudy
8:00 AM 66 °F - 51 °F 48% 29.96 in - South 12.7 mph - -  
8:00 AM 66.2 °F - 51.8 °F 60% 29.95 in 6.2 mi South 12.7 mph - N/A   Partly Cloudy
8:30 AM 69.8 °F - 51.8 °F 53% 29.95 in 6.2 mi SSE 13.8 mph - N/A   Partly Cloudy
9:00 AM 71 °F - 51 °F 39% 29.95 in 19 mi SSE 13.8 mph - -   Partly Cloudy
9:00 AM 71.6 °F - 51.8 °F 50% 29.95 in 6.2 mi SSE 13.8 mph - N/A   Partly Cloudy
9:30 AM 73.4 °F - 51.8 °F 47% 29.95 in 6.2 mi South 13.8 mph - N/A   Partly Cloudy
10:00 AM 75.2 °F - 51.8 °F 44% 29.92 in 6.2 mi South 11.5 mph - N/A   Partly Cloudy
10:30 AM 77.0 °F - 51.8 °F 41% 29.92 in 6.2 mi South 10.4 mph - N/A   Partly Cloudy
11:00 AM 78 °F - 52 °F 30% 29.91 in - South 13.8 mph - -  
11:00 AM 78.8 °F - 51.8 °F 39% 29.89 in - South 13.8 mph - N/A   Clear
11:30 AM 80.6 °F - 51.8 °F 37% 29.89 in - South 8.1 mph - N/A   Clear
12:00 PM 80 °F - 51 °F 25% 29.89 in 19 mi SSE 11.5 mph - -   Partly Cloudy
12:00 PM 80.6 °F - 50.0 °F 34% 29.89 in - SSE 12.7 mph - N/A   Clear
12:30 PM 82.4 °F - 50.0 °F 32% 29.86 in - SSE 13.8 mph - N/A   Clear
1:00 PM 82.4 °F - 50.0 °F 32% 29.86 in - South 6.9 mph - N/A   Clear
1:30 PM 84.2 °F - 50.0 °F 30% 29.86 in - SE 11.5 mph - N/A   Clear
2:00 PM 85 °F - 49 °F 19% 29.85 in - SSW 12.7 mph - -  
2:00 PM 84.2 °F - 50.0 °F 30% 29.83 in - SSW 12.7 mph - N/A   Clear
2:30 PM 84.2 °F - 50.0 °F 30% 29.83 in - SSE 11.5 mph - N/A   Clear
3:00 PM 85 °F - 46 °F 16% 29.84 in 19 mi South 10.4 mph - -   Partly Cloudy
3:00 PM 86.0 °F - 46.4 °F 25% 29.83 in - SSW 9.2 mph - N/A   Clear
3:30 PM 86.0 °F - 50.0 °F 29% 29.83 in - SE 10.4 mph - N/A   Clear
4:00 PM 82.4 °F 81.4 °F 53.6 °F 37% 29.83 in - SW 18.4 mph - N/A   Clear
4:30 PM 80.6 °F 80.5 °F 55.4 °F 42% 29.83 in - SW 18.4 mph - N/A   Clear
5:00 PM 80 °F - 56 °F 33% 29.84 in - SW 17.3 mph - -  
5:00 PM 80.6 °F 80.5 °F 55.4 °F 42% 29.83 in - SW 17.3 mph - N/A   Clear
5:30 PM 78.8 °F - 55.4 °F 44% 29.83 in - SW 17.3 mph - N/A   Clear
6:00 PM 78 °F - 56 °F 35% 29.86 in 16 mi SSW 16.1 mph - -   Smoke
6:00 PM 77.0 °F - 55.4 °F 47% 29.86 in - SSW 16.1 mph - N/A   Clear
6:30 PM 75.2 °F - 55.4 °F 50% 29.86 in - SSW 16.1 mph - N/A   Clear
7:00 PM 75.2 °F - 55.4 °F 50% 29.86 in - SSW 12.7 mph - N/A   Clear
7:30 PM 73.4 °F - 57.2 °F 57% 29.89 in - SSW 15.0 mph - N/A   Clear
8:00 PM 73 °F - 56 °F 46% 29.90 in - SSW 10.4 mph - -  
8:00 PM 73.4 °F - 57.2 °F 57% 29.89 in - SSW 10.4 mph - N/A   Clear
8:30 PM 71.6 °F - 57.2 °F 60% 29.89 in - South 12.7 mph - N/A   Clear
9:00 PM 71 °F - 55 °F 46% 29.93 in 16 mi South 12.7 mph - -   Partly Cloudy
9:00 PM 71.6 °F - 55.4 °F 57% 29.92 in - South 12.7 mph - N/A   Clear
9:30 PM 71.6 °F - 50.0 °F 46% 29.92 in - SSE 15.0 mph - N/A   Clear
10:00 PM 71.6 °F - 50.0 °F 46% 29.95 in - SSE 13.8 mph - N/A   Clear
11:00 PM 68 °F - 51 °F 43% 29.96 in - SSE 16.1 mph - -  
11:00 PM 68.0 °F - 50.0 °F 52% 29.95 in - SSE 16.1 mph - N/A   Clear
11:30 PM 66.2 °F - 50.0 °F 56% 29.95 in - SSE 17.3 mph - N/A   Clear